Weather History for Little Rock, AR

Change the Weather History Date:

Friday, May 16, 2014

  Actual Average Record
Temperature  
Mean Temperature 61 °F 71 °F  
Max Temperature 76 °F 81 °F 93 °F (1962)
Min Temperature 45 °F 61 °F 45 °F (1973)
Degree Days  
Heating Degree Days 4 0  
Month to date heating degree days 40 18  
Since 1 July heating degree days 3451 3050  
Cooling Degree Days 0 7  
Month to date cooling degree days 78 79  
Year to date cooling degree days 131 151  
Growing Degree Days 10 (Base 50)    
Moisture  
Dew Point 42 °F    
Average Humidity 58    
Maximum Humidity 93    
Minimum Humidity 23    
Precipitation  
Precipitation 0.00 in 0.17 in 2.69 in (1920)
Month to date precipitation 3.25 2.76  
Year to date precipitation 19.06 19.79  
Snow  
Snow 0.00 in 0.00 in - ()
Month to date snowfall 0.0 0.0  
Since 1 July snowfall 6.2 3.5  
Snow Depth 0.00 in    
Sea Level Pressure  
Sea Level Pressure 30.11 in    
Wind  
Wind Speed 6 mph (WSW)    
Max Wind Speed 16 mph    
Max Gust Speed 23 mph    
Visibility 10 miles    
Events      
T = Trace of Precipitation, MM = Missing Value Source: NWS Daily Summary

Daily Weather History Graph

Daily Weather History Graph

Search for Another Location

Airport:

Trip Planner

Search our weather history database for the weather conditions in past years. The results will help you decide how hot, cold, wet, or windy it might be!

Date:

Astronomy

May. 16, 2014 Rise Set
Actual Time 6:05 AM CDT 8:05 PM CDT
Civil Twilight 5:37 AM CDT 8:33 PM CDT
Nautical Twilight 5:03 AM CDT 9:08 PM CDT
Astronomical Twilight 4:26 AM CDT 9:44 PM CDT
Moon 10:13 PM CDT (5/16) 7:47 AM CDT (5/16)
Length of Visible Light 14h 56m
Length of Day
14h 00m
Waning Gibbous, 95% of the Moon is Illuminated
May 16
Waning Gibbous
May 21
Last Quarter
May 28
New
Jun 5
First Quarter
Jun 12
Full

Hourly Weather History & Observations

Time (CDT) Temp. Dew Point Humidity Pressure Visibility Wind Dir Wind Speed Gust Speed Precip Events Conditions
12:53 AM 53.1 °F 44.1 °F 71% 30.17 in 10.0 mi West 4.6 mph - N/A   Scattered Clouds
1:53 AM 50.0 °F 44.1 °F 80% 30.16 in 10.0 mi WSW 4.6 mph - N/A   Partly Cloudy
2:53 AM 48.2 °F 44.6 °F 87% 30.15 in 10.0 mi WSW 4.6 mph - N/A   Scattered Clouds
3:53 AM 46.0 °F 43.0 °F 89% 30.16 in 10.0 mi Calm Calm - N/A   Partly Cloudy
4:53 AM 46.9 °F 44.1 °F 90% 30.15 in 10.0 mi West 5.8 mph - N/A   Partly Cloudy
5:53 AM 46.9 °F 44.1 °F 90% 30.14 in 10.0 mi WSW 5.8 mph - N/A   Partly Cloudy
6:53 AM 48.0 °F 45.0 °F 89% 30.14 in 10.0 mi WSW 5.8 mph - N/A   Clear
7:53 AM 51.1 °F 46.0 °F 83% 30.15 in 10.0 mi SW 3.5 mph - N/A   Partly Cloudy
8:53 AM 57.9 °F 46.9 °F 67% 30.15 in 10.0 mi SW 3.5 mph - N/A   Partly Cloudy
9:53 AM 64.0 °F 45.0 °F 50% 30.14 in 10.0 mi SW 8.1 mph - N/A   Scattered Clouds
10:53 AM 66.9 °F 44.1 °F 44% 30.14 in 10.0 mi SSW 9.2 mph - N/A   Mostly Cloudy
11:53 AM 69.1 °F 41.0 °F 36% 30.14 in 10.0 mi SW 6.9 mph - N/A   Mostly Cloudy
12:53 PM 72.0 °F 36.0 °F 27% 30.13 in 10.0 mi Variable 4.6 mph - N/A   Scattered Clouds
1:53 PM 72.0 °F 37.0 °F 28% 30.11 in 10.0 mi SW 5.8 mph - N/A   Scattered Clouds
2:53 PM 73.9 °F 37.9 °F 27% 30.09 in 10.0 mi WSW 10.4 mph - N/A   Scattered Clouds
3:53 PM 75.0 °F 35.1 °F 23% 30.08 in 10.0 mi Variable 3.5 mph - N/A   Mostly Cloudy
4:53 PM 71.1 °F 34.0 °F 26% 30.06 in 10.0 mi North 6.9 mph - N/A   Mostly Cloudy
5:53 PM 69.1 °F 37.9 °F 32% 30.06 in 10.0 mi ENE 6.9 mph - N/A   Overcast
6:53 PM 66.9 °F 41.0 °F 39% 30.05 in 10.0 mi NE 6.9 mph - N/A   Overcast
7:53 PM 64.0 °F 44.1 °F 48% 30.06 in 10.0 mi ENE 5.8 mph - N/A   Overcast
8:53 PM 64.0 °F 44.1 °F 48% 30.04 in 10.0 mi SE 8.1 mph - N/A   Overcast
9:53 PM 60.8 °F 44.6 °F 55% 30.08 in 10.0 mi NNE 3.5 mph - N/A   Overcast
10:53 PM 57.9 °F 46.0 °F 65% 30.09 in 10.0 mi NNE 4.6 mph - N/A   Mostly Cloudy
11:53 PM 59.0 °F 45.0 °F 60% 30.10 in 10.0 mi NNE 13.8 mph - N/A   Scattered Clouds